Showing default

CONNECTA IOT-12, 64553

Orbit data source: Space-Track

CONNECTA IOT-12, 64553 is a payload satellite owned by Plan-S (TR) in SSO that was launched on Mon, 23 Jun 2025 UTC via an FALCON 9 launch vehicle from the Air Force Western Test Range (AFWTR). Payload-class satellites include a variety of spacecraft equipped with specific instruments for various scientific and technological missions. These include communications satellites like Starlink; space stations such as the ISS; scientific satellites like the Hubble; Earth observation satellites from companies like Planet Labs, Umbra, and HawkEye 360; GPS; miniature CubeSats for education and research; and military/defense satellites.

Loading next visibility...
Identifier
64553, 2025-135AB
Orbit
SSO
Country
Flag of UnknownUnknown / TURK
Related business
Manufacturer
Plan-S
Mission
Operational Commercial Communications
Bus & Motor
CUBESAT 6U, Unknown motor
Mass
10 kg wet, 10 kg dry
Launch date (UTC)
2025-06-23 (7 months ago)
Launch vehicle
FALCON 9
Launch site
Air Force Western Test Range (AFWTR)
Object type
Payload
Rocket body
Debris
Shape & HBR
Box, 0.1 m
Radar Cross Section
0.080 m², Medium (>0.1 m² and < 1m²)

Expand to show TLE details & history
Last TLE update: 10 hours ago

TLE from 10 hours ago
0 CONNECTA IOT-12
1 64553U 25135AB  26036.09963533  .00006207  00000-0  28433-3 0  9992
2 64553  97.4605 152.7787 0002235 114.9134 245.2334 15.20839207 34791
Epoch: 2026-02-05T02:23Z
TLE epoch observation values (Epoch: 2026-02-05T02:23:28.492Z)
Latitude
-0.00001°
Longitude
-18.34674°
Altitude
507.043 km
Speed
7.61 km/s
True Right ascension
10h 11m 06s
True Declination
0° 00' 00"
Sunlit
Object was in full shadow at epoch
Visualization orbit readout
Latitude
Unknown
Longitude
Unknown
Altitude
Unknown
Speed
Unknown
Apparent Right ascension
Unknown
Apparent Declination
Unknown
Sunlit
N/A
Visualization observer readout
Local Sidereal Time
14:13:43
Azimuth
Unknown
Elevation
Unknown
Doppler factor
Unknown
Orbital elements
Apogee altitude
501.812 km
Perigee altitude
498.738 km
Semi-major axis
6,878.412 km
Eccentricity
0.00022
Inclination
97.4605°
RAAN
152.7787°
Arg. of periapsis
114.9134°
True anomaly
245.21015°
Mean anomaly
245.2334°
Eccentric anomaly
245.22177°
Mean motion
3.80462 °/min
Orbital period
94.62 mins
BSTAR
0.00028433
Loading maneuver chart data...
Computing Atmospheric mass density...
Loading historical data...
Loading historical data...
Loading historical data...
Loading historical data...
Loading historical data...
Loading historical data...
Loading historical data...

Documentation

Showing up to 5 results
|